AEHF-6 (USA 298)

Last updated on Fri Jul 11 2025 00:02:45 GMT+0000 (Coordinated Universal Time)

1 45465U 20022B 25191.58902127 -.00000281 00000+0 00000+0 0 9992 2 45465 3.3130 298.4148 0041526 11.9712 328.1649 1.00274341 19589
UTC large
Height (km)
Speed (km/s)
/
Latitude / Longitude
Inclination (degrees)
Orbital Period (minutes)
Azimuth
Elevation
Range (km)
Doppler Factor

Next 0 passes for location: London (51.5072 / 0.1276)

Sorry there are no passes over London.